When you browse on this site, cookies collect data to enhance your experience and personalize the content and advertising you see.
Visit our Privacy Policy to learn more. By continuing to use the site, you agree to this use of cookies and data.
  • In United Kingdom
  • List of Countries
  • For 7 days
  • Water Temperature
  • Weather Map
  • Weather Widgets
  • user-avatar
    Login

    Hourly Weather Peches'ke

    Today, 17 August, Saturday

    Time Temperature Precipitation Wind Pressure Humidity
    00:00 +13°C° 0 mm 2 mps 734 mmHg 85%
    01:00 +13°C° 0 mm 2 mps 735 mmHg 87%
    02:00 +12°C° 0 mm 2 mps 735 mmHg 91%
    03:00 +12°C° 0 mm 2 mps 734 mmHg 92%
    04:00 +12°C° 0 mm 2 mps 734 mmHg 93%
    05:00 +12°C° 0 mm 2 mps 734 mmHg 94%
    06:00 +12°C° 0 mm 3 mps 735 mmHg 90%
    07:00 +14°C° 0 mm 3 mps 735 mmHg 86%
    08:00 +16°C° 0 mm 3 mps 735 mmHg 83%
    09:00 +18°C° 0.1 mm 3 mps 735 mmHg 76%
    10:00 +19°C° 0.1 mm 3 mps 735 mmHg 69%
    11:00 +21°C° 0.1 mm 4 mps 735 mmHg 62%
    12:00 +21°C° 0.1 mm 4 mps 735 mmHg 60%
    13:00 +22°C° 0.1 mm 4 mps 735 mmHg 59%
    14:00 +22°C° 0.1 mm 4 mps 735 mmHg 57%
    15:00 +22°C° 0.1 mm 4 mps 735 mmHg 59%
    16:00 +22°C° 0.1 mm 4 mps 734 mmHg 62%
    17:00 +21°C° 0.1 mm 3 mps 734 mmHg 65%
    18:00 +20°C° 0 mm 3 mps 734 mmHg 71%
    19:00 +18°C° 0 mm 2 mps 734 mmHg 77%
    20:00 +17°C° 0 mm 2 mps 734 mmHg 83%
    21:00 +16°C° 0 mm 2 mps 734 mmHg 84%
    22:00 +15°C° 0 mm 2 mps 734 mmHg 86%
    23:00 +15°C° 0 mm 2 mps 734 mmHg 87%

    Tomorrow, 18 August, Sunday

    Time Temperature Precipitation Wind Pressure Humidity
    00:00 +14°C° 0 mm 2 mps 734 mmHg 88%
    01:00 +14°C° 0 mm 1 mps 734 mmHg 88%
    02:00 +14°C° 0 mm 1 mps 734 mmHg 89%
    03:00 +13°C° 0 mm 1 mps 734 mmHg 89%
    04:00 +13°C° 0 mm 1 mps 734 mmHg 90%
    05:00 +13°C° 0 mm 1 mps 734 mmHg 90%
    06:00 +15°C° 0 mm 1 mps 735 mmHg 85%
    07:00 +16°C° 0 mm 1 mps 735 mmHg 79%
    08:00 +19°C° 0 mm 1 mps 735 mmHg 74%
    09:00 +20°C° 0 mm 1 mps 735 mmHg 68%
    10:00 +22°C° 0 mm 1 mps 736 mmHg 62%
    11:00 +23°C° 0 mm 1 mps 736 mmHg 56%
    12:00 +24°C° 0 mm 1 mps 736 mmHg 53%
    13:00 +24°C° 0 mm 1 mps 735 mmHg 50%
    14:00 +25°C° 0 mm 1 mps 735 mmHg 48%
    15:00 +25°C° 0 mm 1 mps 735 mmHg 49%
    16:00 +25°C° 0 mm 1 mps 735 mmHg 50%
    17:00 +25°C° 0 mm 1 mps 735 mmHg 51%
    18:00 +23°C° 0 mm 1 mps 736 mmHg 56%
    19:00 +21°C° 0 mm 2 mps 736 mmHg 60%
    20:00 +19°C° 0 mm 2 mps 736 mmHg 65%
    21:00 +18°C° 0 mm 2 mps 736 mmHg 67%
    22:00 +18°C° 0 mm 2 mps 736 mmHg 69%
    23:00 +17°C° 0 mm 3 mps 736 mmHg 70%

    Day after tomorrow, 19 August, Monday

    Time Temperature Precipitation Wind Pressure Humidity
    00:00 +17°C° 0 mm 3 mps 736 mmHg 71%
    01:00 +17°C° 0 mm 3 mps 736 mmHg 72%
    02:00 +16°C° 0 mm 3 mps 736 mmHg 72%
    03:00 +16°C° 0 mm 3 mps 736 mmHg 73%
    04:00 +16°C° 0 mm 3 mps 736 mmHg 73%
    05:00 +16°C° 0 mm 3 mps 737 mmHg 74%
    06:00 +17°C° 0 mm 3 mps 737 mmHg 71%
    07:00 +19°C° 0 mm 3 mps 737 mmHg 69%
    08:00 +20°C° 0 mm 3 mps 737 mmHg 67%
    09:00 +22°C° 0 mm 3 mps 738 mmHg 63%
    10:00 +25°C° 0 mm 3 mps 738 mmHg 59%
    11:00 +26°C° 0 mm 3 mps 738 mmHg 55%
    12:00 +27°C° 0 mm 3 mps 738 mmHg 52%
    13:00 +28°C° 0 mm 3 mps 738 mmHg 50%
    14:00 +28°C° 0 mm 2 mps 738 mmHg 48%
    15:00 +28°C° 0 mm 2 mps 738 mmHg 49%
    16:00 +28°C° 0 mm 2 mps 738 mmHg 51%
    17:00 +28°C° 0 mm 2 mps 738 mmHg 52%
    18:00 +26°C° 0 mm 2 mps 738 mmHg 57%
    19:00 +24°C° 0 mm 2 mps 738 mmHg 61%
    20:00 +23°C° 0 mm 2 mps 738 mmHg 66%
    21:00 +21°C° 0 mm 2 mps 738 mmHg 66%
    22:00 +20°C° 0 mm 2 mps 738 mmHg 67%
    23:00 +20°C° 0 mm 2 mps 738 mmHg 67%

    20 August, Tuesday

    Time Temperature Precipitation Wind Pressure Humidity
    00:00 +19°C° 0 mm 2 mps 738 mmHg 67%
    01:00 +19°C° 0 mm 2 mps 738 mmHg 67%
    02:00 +18°C° 0 mm 2 mps 738 mmHg 67%
    03:00 +18°C° 0 mm 2 mps 738 mmHg 65%
    04:00 +18°C° 0 mm 2 mps 738 mmHg 63%
    05:00 +17°C° 0 mm 2 mps 738 mmHg 61%
    06:00 +19°C° 0 mm 2 mps 738 mmHg 61%
    07:00 +20°C° 0 mm 2 mps 739 mmHg 60%
    08:00 +21°C° 0 mm 2 mps 739 mmHg 60%
    09:00 +24°C° 0 mm 2 mps 739 mmHg 56%
    10:00 +26°C° 0 mm 2 mps 739 mmHg 51%
    11:00 +28°C° 0 mm 2 mps 740 mmHg 46%
    12:00 +28°C° 0 mm 2 mps 739 mmHg 45%
    13:00 +29°C° 0 mm 2 mps 739 mmHg 44%
    14:00 +30°C° 0 mm 2 mps 739 mmHg 42%
    15:00 +29°C° 0 mm 1 mps 739 mmHg 44%
    16:00 +29°C° 0 mm 1 mps 739 mmHg 45%
    17:00 +29°C° 0 mm 1 mps 739 mmHg 47%
    18:00 +27°C° 0 mm 1 mps 739 mmHg 52%
    19:00 +25°C° 0 mm 2 mps 739 mmHg 56%
    20:00 +23°C° 0 mm 2 mps 739 mmHg 61%
    21:00 +23°C° 0 mm 2 mps 739 mmHg 62%
    22:00 +21°C° 0 mm 2 mps 739 mmHg 64%
    23:00 +20°C° 0 mm 3 mps 739 mmHg 65%

    21 August, Wednesday

    Time Temperature Precipitation Wind Pressure Humidity
    00:00 +20°C° 0 mm 3 mps 739 mmHg 65%
    01:00 +19°C° 0 mm 3 mps 738 mmHg 65%
    02:00 +19°C° 0 mm 3 mps 738 mmHg 64%
    03:00 +18°C° 0 mm 3 mps 738 mmHg 65%
    04:00 +18°C° 0 mm 3 mps 738 mmHg 66%
    05:00 +18°C° 0 mm 3 mps 738 mmHg 67%
    06:00 +19°C° 0 mm 3 mps 738 mmHg 66%
    07:00 +21°C° 0 mm 3 mps 738 mmHg 65%
    08:00 +22°C° 0 mm 3 mps 738 mmHg 64%
    09:00 +25°C° 0 mm 3 mps 738 mmHg 59%
    10:00 +27°C° 0 mm 3 mps 738 mmHg 55%
    11:00 +28°C° 0 mm 4 mps 738 mmHg 51%
    12:00 +29°C° 0 mm 3 mps 738 mmHg 48%
    13:00 +30°C° 0 mm 3 mps 737 mmHg 46%
    14:00 +31°C° 0 mm 3 mps 737 mmHg 43%
    15:00 +30°C° 0 mm 4 mps 737 mmHg 50%
    16:00 +29°C° 0 mm 5 mps 737 mmHg 57%
    17:00 +28°C° 0 mm 6 mps 738 mmHg 64%
    18:00 +24°C° 0 mm 6 mps 738 mmHg 69%
    19:00 +22°C° 0 mm 6 mps 738 mmHg 74%
    20:00 +18°C° 0 mm 7 mps 739 mmHg 79%
    21:00 +17°C° 0 mm 7 mps 739 mmHg 79%
    22:00 +16°C° 0 mm 6 mps 740 mmHg 80%
    23:00 +15°C° 0 mm 6 mps 740 mmHg 81%

    22 August, Thursday

    Time Temperature Precipitation Wind Pressure Humidity
    00:00 +14°C° 0 mm 6 mps 740 mmHg 82%
    01:00 +14°C° 0 mm 6 mps 740 mmHg 84%
    02:00 +13°C° 0 mm 5 mps 741 mmHg 85%
    03:00 +13°C° 0 mm 5 mps 741 mmHg 86%
    04:00 +13°C° 0 mm 5 mps 741 mmHg 86%
    05:00 +13°C° 0 mm 5 mps 741 mmHg 87%
    06:00 +13°C° 0 mm 5 mps 741 mmHg 84%
    07:00 +14°C° 0 mm 5 mps 742 mmHg 82%
    08:00 +14°C° 0 mm 6 mps 742 mmHg 79%
    09:00 +16°C° 0 mm 6 mps 742 mmHg 73%
    10:00 +17°C° 0 mm 6 mps 742 mmHg 68%
    11:00 +20°C° 0 mm 6 mps 743 mmHg 62%
    12:00 +21°C° 0 mm 6 mps 742 mmHg 59%
    13:00 +22°C° 0 mm 6 mps 742 mmHg 55%
    14:00 +23°C° 0 mm 6 mps 742 mmHg 52%
    15:00 +22°C° 0 mm 6 mps 742 mmHg 54%
    16:00 +22°C° 0 mm 5 mps 742 mmHg 56%
    17:00 +22°C° 0 mm 5 mps 742 mmHg 59%
    18:00 +20°C° 0 mm 4 mps 742 mmHg 64%
    19:00 +18°C° 0 mm 4 mps 742 mmHg 70%
    20:00 +17°C° 0 mm 3 mps 742 mmHg 76%
    21:00 +16°C° 0 mm 3 mps 742 mmHg 77%
    22:00 +14°C° 0 mm 3 mps 742 mmHg 78%
    23:00 +14°C° 0 mm 3 mps 742 mmHg 80%
    Show more